Wind_Speed
17 17 17 17 15 15 15 14 16 17 17 19 19 19 21 22 21 21 19 17 16 16 16 16 16 17 16 16 15 14 14 14 14 14 15 15 15 14 14 14 15 15 16 16 16 17 17 17 18 18 18 18 18 18 18 18 18 17 17 17 17 16 16 15 15 14 14 13 14 14 15 15 15 16 16 17 17 18 19 19 19 20 20 21 22
19 19 19 18 16 16 17 19 21 19 18 19 20 20 21 22 23 23 23 20 18 16 16 16 16 16 16 16 16 16 15 15 15 15 16 16 16 16 15 15 15 16 16 16 17 17 17 18 18 19 19 19 19 19 18 18 18 18 18 18 18 17 17 16 16 16 16 15 15 15 16 16 16 16 17 17 17 18 18 19 20 20 20 21 22
21 21 20 19 18 18 19 21 21 19 18 20 20 20 21 22 23 25 25 24 22 19 17 17 17 17 16 15 15 16 16 16 16 17 17 17 17 17 16 16 16 17 17 17 17 17 17 18 18 19 19 20 20 20 19 19 19 19 19 18 18 18 18 17 17 17 17 17 17 17 17 18 18 18 19 19 19 19 20 20 21 21 22 22 23
23 22 21 20 21 21 21 21 22 21 19 19 18 17 18 21 23 25 26 24 22 21 19 19 18 18 18 18 19 19 19 19 19 19 20 19 19 19 19 19 19 18 19 19 19 19 19 18 18 18 19 20 20 20 21 20 20 20 20 20 19 19 19 18 18 18 18 17 18 18 18 19 19 19 20 21 21 22 22 23 23 24 24 24 25
25 25 24 23 23 23 23 23 23 21 19 18 17 16 18 19 20 22 24 23 22 22 22 22 21 20 21 22 23 24 23 22 22 23 23 22 21 21 21 21 21 20 20 20 21 21 21 21 20 20 20 20 20 21 21 21 21 21 21 20 20 20 19 19 18 18 18 18 18 18 18 19 19 20 20 22 23 24 25 25 26 27 27 28 28
28 27 27 26 26 24 24 23 19 16 17 20 20 20 20 19 17 18 20 20 20 21 22 23 22 20 20 20 21 23 24 23 24 24 24 24 24 23 23 23 23 22 22 22 23 23 23 23 23 23 22 22 22 22 22 22 22 22 21 21 20 20 20 20 20 19 19 19 19 19 19 20 20 21 21 21 22 23 24 26 27 28 29 30 31
30 30 30 30 30 28 25 23 21 22 25 26 23 21 20 20 21 22 22 23 22 21 22 23 24 23 22 21 20 22 24 24 25 26 25 24 25 25 24 25 25 24 24 24 24 25 25 26 26 26 26 25 24 24 24 24 24 23 23 23 23 22 22 22 22 22 22 22 22 22 22 23 23 24 24 23 24 24 25 26 27 28 28 29 31
33 35 35 35 34 32 28 27 27 29 29 26 23 23 23 24 25 25 25 26 27 26 26 27 28 27 26 25 25 26 26 26 26 27 27 26 26 26 27 28 28 28 27 26 27 27 28 28 29 29 29 28 27 27 27 27 26 26 26 26 26 26 26 25 25 25 25 26 25 25 26 27 27 28 28 28 28 28 28 28 29 30 31 31 32
38 39 39 37 35 33 31 30 30 30 29 28 28 29 29 29 27 27 27 28 28 28 27 27 28 28 28 29 29 29 29 28 28 27 27 28 28 29 29 30 30 30 30 29 29 30 30 31 31 32 31 31 31 31 32 32 31 30 30 30 30 30 30 29 29 29 29 29 30 30 30 31 31 32 33 33 33 33 33 33 33 33 34 35 36
40 40 39 37 34 33 32 31 31 31 31 32 33 34 33 32 31 30 30 30 30 30 29 30 31 32 31 31 31 31 31 31 31 30 29 30 31 32 32 33 32 33 33 32 32 33 34 35 35 35 34 33 33 34 35 36 36 36 35 34 34 34 34 33 32 32 32 33 34 34 34 35 35 35 35 35 36 37 37 37 37 37 38 38 39
41 39 38 37 35 34 33 33 33 34 34 35 35 35 34 34 33 33 33 33 34 34 35 36 35 35 34 34 34 34 33 33 33 32 32 33 33 34 34 35 34 34 35 34 34 36 38 40 40 40 39 38 37 37 38 38 40 41 41 39 38 38 38 36 35 35 36 37 38 38 38 38 38 38 37 37 37 38 38 39 40 40 41 41 42
42 40 39 39 39 39 39 39 40 40 40 39 37 36 35 34 34 34 35 35 35 35 36 36 35 35 35 35 35 35 34 34 34 34 34 35 35 36 37 37 37 37 37 37 37 38 39 41 42 42 42 42 42 42 41 41 42 43 44 43 41 41 41 40 39 40 41 41 42 42 42 41 41 42 42 41 40 41 41 42 42 43 44 45 45
44 44 43 43 43 43 44 44 44 44 43 41 39 38 37 36 35 35 35 35 35 35 35 35 34 33 33 34 35 35 35 34 34 35 36 36 37 37 38 39 40 40 40 40 40 41 41 42 42 42 42 43 44 44 44 44 44 43 43 42 41 42 44 45 45 45 46 46 46 47 46 46 46 46 46 46 46 45 45 46 47 47 47 48 48
46 46 45 45 45 45 45 44 44 43 42 41 40 39 38 37 37 37 37 37 37 37 37 36 35 34 34 35 36 36 37 36 36 37 38 39 39 39 40 41 41 42 42 42 42 43 44 44 44 44 44 45 46 46 46 47 46 44 43 42 43 46 50 51 51 52 52 53 52 51 51 51 50 50 50 50 51 51 51 51 51 52 52 52 52
47 47 46 45 45 45 44 44 43 42 41 40 39 39 39 39 39 40 40 40 40 39 38 37 37 37 38 38 39 40 40 41 41 41 41 41 42 42 42 42 42 42 43 44 44 45 46 46 47 47 47 48 49 49 49 50 50 49 49 49 50 52 54 55 56 57 57 56 56 55 55 54 54 54 55 55 56 57 57 56 56 56 56 56 56
45 45 44 45 45 45 45 44 44 43 43 42 41 42 42 43 42 42 42 42 41 40 39 39 39 40 41 42 43 43 44 45 45 45 44 43 42 43 43 43 43 43 43 44 45 46 47 48 49 50 50 51 51 52 52 53 54 54 54 54 55 57 58 58 59 59 58 58 58 58 58 58 58 58 59 60 60 60 60 60 60 60 59 58 59
44 44 44 46 47 48 48 48 48 47 47 46 46 46 46 46 46 45 44 44 43 42 42 42 42 43 44 45 46 46 47 48 48 48 47 45 43 43 44 44 44 44 44 44 45 46 47 48 49 51 52 52 52 52 53 54 54 54 55 55 56 57 58 59 59 59 59 60 60 60 60 60 60 60 61 61 61 61 61 61 61 61 61 60 60
48 48 49 50 50 50 51 51 50 50 51 51 51 50 49 49 49 48 47 46 46 45 45 45 46 47 47 47 48 48 48 49 50 51 50 48 46 45 44 44 44 44 44 45 45 45 46 47 49 50 51 52 52 53 53 54 54 54 54 55 55 56 56 57 58 59 59 60 60 60 60 60 60 61 61 61 61 61 61 61 61 62 61 61 60
47 49 51 51 51 50 50 49 49 49 50 51 52 52 52 51 50 50 49 48 48 48 48 49 51 51 50 49 49 50 50 51 51 51 51 50 49 48 47 46 45 45 44 45 45 45 46 47 48 49 50 51 51 52 53 54 54 55 55 56 56 56 56 57 58 58 59 59 60 60 60 61 61 61 61 61 62 62 62 62 62 63 62 62 62
41 42 44 45 46 45 44 45 47 48 48 48 49 50 50 49 49 50 50 50 50 52 53 54 53 52 51 50 51 51 52 52 51 51 50 50 49 49 48 47 46 46 46 45 45 46 46 46 47 48 48 49 50 51 52 53 54 55 56 56 56 57 58 59 59 59 59 60 60 60 61 61 62 62 62 62 62 63 63 63 64 64 64 64 64
45 42 41 43 44 44 44 46 48 50 51 50 51 51 52 52 53 54 54 54 55 56 56 54 52 51 51 51 51 51 51 51 50 50 49 49 48 48 47 47 47 46 46 46 46 46 46 46 46 47 47 48 48 49 50 51 52 53 54 55 56 57 58 59 59 59 60 60 60 61 61 62 62 63 63 64 64 64 64 65 65 65 65 66 66
56 54 52 52 52 51 52 53 54 55 57 57 58 59 60 60 59 59 59 59 59 58 56 54 52 51 51 50 50 50 49 49 48 48 47 47 47 46 46 46 46 46 46 46 46 46 46 46 46 46 46 47 47 49 49 50 50 51 53 54 55 56 57 58 58 59 59 60 60 61 61 62 62 63 64 64 65 65 65 66 66 67 67 67 67
64 64 63 63 63 63 62 63 64 65 65 65 64 64 63 62 61 60 61 61 59 58 56 54 52 51 50 49 49 48 48 47 47 46 46 46 46 45 45 45 45 45 45 45 46 46 46 46 46 46 46 46 46 46 47 47 48 49 50 50 51 52 53 54 55 55 56 57 58 59 60 61 62 62 63 64 65 65 66 66 66 67 67 67 68
65 65 65 65 65 65 66 66 67 67 67 67 66 64 62 60 59 60 60 59 58 57 55 53 51 50 49 48 47 47 46 46 46 46 46 46 46 46 45 45 44 44 45 45 45 45 46 46 46 46 45 45 45 45 45 46 47 47 47 48 48 48 49 49 49 50 51 52 52 53 55 56 57 58 59 60 61 61 62 63 63 64 64 64 64
66 66 66 65 64 64 64 64 64 64 65 65 64 63 61 60 60 60 60 59 57 56 54 52 50 49 48 47 47 46 46 46 46 46 46 47 47 46 46 45 44 44 44 44 44 45 45 45 45 45 45 45 45 45 46 46 46 47 47 47 47 47 47 48 48 48 48 49 50 50 51 53 54 55 55 56 57 58 58 59 59 59 59 59 59
67 67 67 67 66 65 63 62 62 61 62 62 61 61 60 60 60 60 60 59 57 55 54 52 50 49 48 46 46 46 47 47 47 47 47 47 47 47 46 45 45 44 44 43 44 44 44 45 45 45 45 45 45 46 46 46 46 46 47 47 47 48 48 48 49 49 49 50 50 51 52 53 54 55 56 56 57 58 59 59 59 59 60 60 59
68 67 67 67 67 66 65 64 63 62 60 60 59 59 59 59 59 59 59 58 56 54 52 49 48 48 46 46 48 48 47 47 46 46 47 47 47 46 45 45 44 44 43 43 43 43 44 44 45 45 44 44 45 45 45 45 46 46 47 47 48 48 49 49 50 50 51 51 52 53 54 54 55 55 56 56 56 57 58 59 59 59 60 61 60
66 66 66 66 66 66 65 65 64 64 62 61 59 58 58 58 58 58 58 56 55 53 50 48 47 45 44 45 48 48 46 45 45 45 45 46 45 45 44 44 43 42 42 42 42 42 43 43 43 42 42 42 42 43 44 44 45 46 47 47 48 49 49 50 51 52 52 53 53 53 53 53 53 53 53 54 54 54 55 56 57 57 58 58 58
64 64 64 64 64 64 63 63 63 63 63 61 59 57 56 56 56 56 56 55 53 52 50 49 47 45 43 45 45 42 41 41 42 43 43 44 44 43 43 42 42 41 41 41 41 41 41 41 40 40 40 40 41 42 43 44 45 45 46 47 48 49 50 50 50 51 51 51 51 51 50 50 50 50 50 50 51 51 52 53 53 53 53 54 53
62 62 62 62 62 61 61 61 61 61 61 60 58 56 54 53 52 52 52 52 51 50 49 48 47 45 45 46 44 41 39 39 40 41 42 42 42 42 42 41 41 41 40 40 40 40 40 39 39 39 40 40 41 41 42 42 43 44 45 46 46 46 46 46 46 46 47 47 48 48 48 49 49 49 50 50 50 51 52 53 53 52 52 52 52
62 62 62 62 61 61 61 60 60 59 59 58 57 55 53 50 48 48 49 49 49 48 48 47 46 45 45 45 44 42 41 39 39 40 41 41 41 41 41 41 41 40 40 40 40 40 40 39 39 39 39 40 40 40 40 40 40 40 40 40 41 41 42 43 44 45 46 47 48 49 49 50 50 50 51 51 51 51 52 52 52 52 51 51 51
63 63 63 63 62 62 62 61 60 59 58 58 57 55 53 50 46 45 46 48 47 47 47 46 46 45 44 43 43 42 41 40 39 39 40 40 40 40 40 40 40 40 40 40 39 39 39 39 38 38 38 38 37 36 35 34 33 33 34 35 37 39 40 42 44 45 46 47 48 49 49 49 49 49 49 48 48 48 48 48 48 48 48 48 48
60 60 61 62 63 63 63 63 62 61 60 59 57 55 53 49 46 44 45 46 46 46 46 46 45 44 43 42 42 41 41 39 39 38 38 38 38 38 39 39 40 40 40 39 38 38 37 37 36 35 34 32 30 28 27 26 27 28 30 32 35 37 39 41 42 44 45 45 46 46 46 46 46 46 45 44 43 42 42 42 41 41 40 40 40
55 56 57 58 59 60 61 62 62 61 61 59 58 56 54 50 47 46 45 45 45 45 44 44 44 42 41 41 41 40 40 39 38 37 37 37 37 37 38 38 39 39 38 37 36 35 34 33 31 29 26 22 20 19 19 20 22 25 28 30 33 35 37 39 41 42 43 44 44 44 43 41 40 38 36 35 34 33 33 32 32 32 32 33 33
46 48 49 51 53 55 56 58 59 60 59 59 58 56 55 52 50 47 45 44 43 43 42 42 42 40 39 39 39 38 38 37 36 36 36 36 36 36 37 37 37 36 35 33 32 30 28 25 22 18 15 13 13 13 15 18 21 25 28 30 33 35 38 40 41 42 42 40 38 36 32 30 27 26 25 24 25 25 26 27 27 28 28 28 29
37 37 38 41 43 45 48 51 53 55 55 56 56 55 54 52 50 47 45 43 41 40 40 39 39 38 37 37 37 36 35 34 34 34 34 34 34 35 34 33 32 31 29 27 25 23 20 16 13 11 9 9 9 12 15 19 23 27 30 33 35 37 39 40 39 36 33 30 26 23 21 20 19 18 19 20 21 22 22 23 24 25 26 26 26
36 36 35 35 36 37 39 41 44 46 47 49 51 51 51 49 47 45 43 40 38 37 36 36 35 35 35 35 34 33 32 32 32 32 32 32 31 31 30 29 27 25 23 20 18 15 13 11 9 8 7 7 9 12 16 20 24 28 32 34 37 38 38 35 30 24 21 20 19 19 18 17 17 17 18 19 20 21 21 23 24 26 27 28 28
31 33 33 34 34 34 34 34 35 36 38 41 43 45 45 44 42 40 37 36 34 33 31 30 31 31 31 30 29 29 29 28 28 28 28 28 27 26 25 23 20 17 16 14 14 13 12 10 9 8 6 6 10 13 17 21 25 29 33 35 37 37 34 27 21 17 16 17 17 18 17 17 17 18 19 19 20 21 22 24 26 27 29 30 30
24 26 28 29 30 31 31 31 30 29 30 33 35 37 38 37 35 33 32 31 29 27 26 27 27 27 26 25 24 24 25 25 24 24 23 23 22 20 18 16 14 14 14 14 14 13 12 11 10 7 5 7 10 14 17 21 25 29 33 36 37 33 27 21 18 17 16 15 15 15 16 16 17 17 18 18 19 20 21 23 24 25 26 26 26
20 22 24 23 24 26 27 27 25 24 24 25 27 29 30 30 29 28 28 26 24 24 25 27 26 24 22 21 21 21 22 22 21 19 18 16 15 14 13 13 13 14 15 15 14 14 14 12 8 5 4 7 10 14 17 21 25 29 33 36 36 30 22 17 16 15 12 12 13 13 14 14 15 15 16 16 16 17 18 19 20 20 20 20 21
12 14 18 18 18 20 22 23 22 21 20 19 21 22 24 25 26 27 26 25 24 25 26 26 24 22 20 19 19 19 19 18 16 15 14 13 12 12 13 14 15 15 16 15 15 15 14 11 7 4 4 7 10 13 17 21 25 29 32 36 37 31 21 16 14 11 9 10 12 13 12 12 14 15 15 15 15 15 15 15 16 16 16 17 18
5 9 13 14 15 16 18 19 19 19 20 20 20 20 19 20 24 28 28 26 26 27 26 24 22 20 19 19 19 19 17 16 15 15 15 14 14 15 16 16 17 16 16 16 16 15 13 9 6 4 5 8 10 13 17 20 24 29 32 36 38 35 25 16 13 10 9 10 12 11 10 12 16 16 15 15 14 13 13 14 15 16 16 17 17
3 5 9 10 10 11 13 16 20 24 24 21 18 17 15 16 22 27 27 25 25 25 24 22 20 19 19 19 19 17 16 16 16 16 15 15 16 17 18 18 18 17 17 17 16 13 11 8 6 5 6 8 10 13 16 20 23 28 31 35 38 38 30 19 12 11 11 12 11 10 11 13 15 15 14 14 14 12 12 14 16 17 18 18 18
16 10 6 6 8 9 11 18 25 26 21 16 16 17 17 19 23 24 23 21 20 20 19 18 18 18 18 18 18 17 17 17 17 17 17 18 19 19 18 18 18 17 17 16 14 12 10 8 7 6 7 8 10 12 15 19 22 26 30 33 37 39 36 24 14 10 12 13 11 9 11 13 13 13 14 14 14 13 13 14 15 17 18 18 18
21 19 16 12 11 11 14 20 23 20 17 17 19 20 20 21 21 20 19 18 17 16 16 17 17 18 18 18 18 17 17 17 18 19 20 20 20 19 18 18 17 16 16 15 13 11 10 10 8 7 7 8 10 12 14 18 21 24 28 32 34 37 38 31 19 11 12 13 10 9 10 12 12 13 15 15 14 14 13 13 15 17 18 18 19
21 21 20 19 17 16 16 17 17 16 18 21 22 21 19 19 19 19 18 18 17 17 17 18 18 18 18 18 18 17 17 18 20 21 21 20 18 17 17 16 15 15 15 14 13 12 12 11 9 9 8 9 10 12 14 17 20 23 26 29 32 34 37 36 27 17 12 11 9 8 10 12 13 15 15 15 14 13 12 12 14 16 17 18 19
19 19 19 20 19 19 19 18 17 18 21 21 20 19 18 17 18 18 18 16 16 17 18 18 19 19 19 18 17 17 18 21 22 21 19 18 16 15 15 14 15 15 15 14 13 13 12 11 10 10 9 9 11 12 14 16 18 21 24 27 30 32 34 36 34 26 17 11 8 8 10 12 15 16 15 13 12 12 11 12 14 15 16 17 18
16 15 15 15 15 15 16 16 16 17 18 18 17 16 16 16 15 14 14 14 16 18 18 18 20 20 18 17 18 20 22 22 21 19 17 15 13 13 14 14 15 16 15 14 13 13 12 12 12 11 11 11 11 12 14 15 17 19 22 24 27 30 31 33 34 32 25 16 10 9 9 12 14 15 13 12 11 11 10 11 12 14 15 16 17
14 15 14 14 13 12 12 12 11 11 12 13 14 15 14 14 13 12 13 15 17 18 18 19 20 19 18 19 21 23 23 22 19 17 15 13 13 14 14 14 15 16 15 14 13 12 12 12 13 13 12 12 12 12 13 15 16 18 20 22 24 27 29 30 32 33 31 25 16 11 10 11 13 14 13 11 11 10 9 10 11 12 13 15 16
12 12 12 12 12 11 10 10 9 8 8 9 11 12 12 12 13 14 15 17 18 18 19 19 20 19 20 22 24 24 23 20 18 15 14 14 15 15 14 15 15 15 14 13 13 12 13 13 13 13 13 13 12 13 13 14 15 16 18 19 21 23 26 28 30 31 32 31 25 18 12 10 12 13 13 11 10 10 9 9 10 10 11 12 14
14 11 10 9 8 8 7 7 7 7 7 8 9 10 12 13 14 15 16 16 16 17 18 20 20 21 23 25 25 23 20 18 17 16 15 15 15 15 14 14 14 15 14 14 13 13 13 13 13 14 14 14 13 13 13 14 15 16 17 18 19 21 23 25 27 29 30 31 30 26 18 12 11 12 13 12 10 9 9 9 9 9 9 10 11
Wind_Direction
294 295 297 302 301 291 280 273 279 288 286 280 276 273 274 271 265 267 271 271 271 272 273 274 273 272 272 271 271 272 275 278 279 280 279 277 275 273 275 278 280 281 280 277 276 274 271 269 267 266 265 263 262 261 261 262 262 261 261 260 260 259 257 257 258 258 256 253 253 256 258 260 261 263 265 265 265 265 265 264 262 261 260 260 260
289 293 295 296 294 286 278 278 283 289 289 284 278 272 267 264 265 269 269 269 273 272 271 274 275 275 275 274 274 274 276 279 279 277 278 281 280 276 274 276 278 281 281 280 278 277 275 272 269 267 265 264 263 262 260 260 260 260 260 260 260 259 258 256 256 257 257 256 254 253 253 254 255 257 260 262 263 265 266 268 268 268 266 265 264
285 288 290 291 289 283 281 285 288 289 290 289 282 270 262 261 264 268 269 271 274 273 271 274 278 278 277 275 273 274 277 281 283 279 277 278 279 278 276 275 275 276 278 279 279 278 277 275 273 271 268 264 263 262 261 260 260 260 261 261 262 262 262 262 261 260 261 261 260 259 258 257 256 255 256 257 258 259 260 262 264 266 268 268 268
284 287 287 288 288 285 287 292 292 289 288 286 279 267 260 262 264 266 269 273 274 273 271 273 275 275 275 274 274 276 278 281 283 282 278 274 272 273 274 274 274 273 274 276 277 277 276 274 273 272 271 268 264 261 258 257 257 257 257 258 259 261 262 263 264 265 266 266 266 266 266 265 264 263 262 262 261 261 261 261 261 262 263 265 267
284 287 288 289 289 289 294 298 292 285 282 278 273 270 269 271 270 268 269 272 274 271 268 267 265 262 267 272 273 274 276 278 282 284 280 273 269 269 270 271 272 272 272 272 274 276 276 274 272 269 268 268 265 263 260 258 257 256 256 256 256 256 257 258 259 261 262 264 265 266 268 269 270 269 269 268 268 267 266 265 265 265 264 263 263
284 288 290 290 289 290 294 297 287 274 278 282 278 275 273 271 272 271 267 267 272 271 263 260 261 264 271 275 275 273 272 275 280 283 281 274 269 268 270 271 271 271 272 272 271 271 272 272 272 270 267 265 263 263 263 261 259 258 257 257 257 257 257 258 259 260 262 264 266 268 270 271 272 272 271 272 272 273 272 271 270 270 269 269 267
285 289 291 289 288 288 290 289 279 273 282 285 276 270 270 270 274 277 271 267 269 270 265 263 266 274 277 277 279 278 277 279 280 281 281 275 269 269 271 273 273 271 272 273 272 269 268 267 267 267 267 265 263 263 262 262 261 260 260 260 259 259 260 261 263 264 265 266 268 270 273 274 275 275 273 273 272 273 274 275 276 275 274 274 273
283 286 287 286 284 284 285 284 279 278 281 280 271 269 275 278 280 279 273 268 267 268 271 268 266 270 274 276 280 282 281 282 280 279 280 277 272 272 274 276 275 272 272 275 274 271 268 267 266 265 264 263 262 261 260 259 259 259 260 261 262 262 262 263 264 265 267 267 268 270 272 275 276 276 276 276 274 273 273 273 275 276 277 276 276
280 282 284 282 279 279 281 282 280 278 279 277 274 276 279 279 277 273 268 267 267 268 269 266 264 271 277 279 280 280 279 279 277 275 275 274 273 274 276 277 275 273 274 277 276 273 270 268 267 267 265 262 260 260 259 259 258 257 257 259 261 262 263 264 265 266 268 269 269 270 271 274 275 276 276 276 275 274 273 273 272 273 274 275 276
277 278 278 277 275 276 278 278 277 277 277 276 276 277 279 279 276 272 269 270 270 267 265 266 272 278 281 280 280 280 279 278 277 275 273 272 272 272 273 274 274 273 275 277 278 277 274 271 269 269 267 263 259 259 259 260 260 259 258 259 260 261 262 264 265 268 271 273 273 272 272 272 273 274 275 274 274 273 272 273 272 271 272 272 273
274 273 271 271 271 273 275 276 277 278 277 276 276 277 278 278 276 274 272 271 269 267 269 275 280 283 282 282 282 281 279 276 274 273 272 271 271 270 270 271 271 271 272 273 273 273 272 272 272 271 269 265 261 259 260 261 263 262 259 258 259 260 261 262 264 268 273 275 275 274 273 272 272 273 272 271 271 271 271 271 271 271 271 270 270
271 269 267 267 268 270 272 274 276 277 277 277 277 277 276 275 274 273 273 273 274 274 277 281 284 283 282 281 281 280 278 276 274 272 271 269 269 268 268 268 268 268 268 269 269 267 267 269 271 273 273 270 266 264 261 262 263 263 261 258 257 258 259 259 263 270 274 275 275 275 275 273 272 272 272 270 269 270 270 271 271 270 270 269 268
269 269 269 269 270 271 272 274 275 276 277 277 277 276 275 274 274 274 275 276 278 279 280 281 281 280 279 278 279 279 278 276 276 275 273 271 268 266 266 266 265 265 265 265 266 266 266 266 268 269 269 268 267 266 264 263 263 263 260 258 256 258 259 261 266 272 275 276 276 275 275 275 274 273 272 271 270 269 270 271 271 271 270 269 268
268 268 269 269 270 271 272 273 273 274 275 275 275 275 274 274 274 275 275 276 277 277 277 277 277 277 278 279 280 280 278 276 276 277 276 273 271 268 265 264 263 263 263 263 264 265 266 266 267 267 266 266 266 266 265 265 265 263 260 258 258 261 264 267 269 273 275 276 276 275 275 276 275 273 271 271 271 271 271 271 270 270 271 270 269
268 268 268 268 269 269 270 270 271 272 272 272 273 273 273 273 273 273 273 274 275 275 274 274 275 277 279 280 281 281 280 279 279 279 279 275 272 270 268 266 264 263 262 263 263 264 265 266 266 266 266 266 266 266 266 266 265 264 262 261 262 263 266 268 271 273 275 275 275 274 274 274 273 272 271 271 272 272 272 271 270 269 269 269 269
266 266 265 266 267 267 268 268 268 268 269 269 269 270 270 271 270 271 272 273 273 273 273 274 275 277 279 280 281 281 281 280 281 282 281 278 273 271 269 268 267 266 264 263 263 263 263 264 265 266 266 266 266 266 266 266 266 266 266 266 266 267 268 270 271 273 273 273 273 273 273 272 272 271 271 271 271 272 272 271 270 269 268 267 267
260 261 262 263 265 266 267 268 268 268 267 267 267 267 268 269 269 270 271 271 270 271 271 272 274 277 279 279 279 279 279 280 280 282 282 279 275 272 270 269 268 268 267 266 265 264 264 264 265 265 266 267 267 267 267 268 268 269 269 269 269 269 269 270 270 271 271 271 271 271 271 271 270 270 270 270 270 270 270 270 269 269 268 267 266
259 260 260 262 264 266 267 267 268 267 266 265 265 265 266 266 267 269 269 269 269 269 269 271 275 278 278 277 276 277 277 278 279 280 281 279 277 275 273 271 269 268 268 267 267 266 265 265 265 265 266 267 268 268 269 269 270 270 270 270 270 270 270 269 269 269 269 269 270 270 270 270 270 270 270 270 270 270 270 269 269 269 269 268 267
261 262 262 262 263 265 267 268 267 265 264 264 263 264 265 266 267 268 269 269 269 269 271 274 277 278 276 275 274 274 275 276 277 277 278 278 278 277 276 274 273 272 271 270 269 268 267 266 266 266 266 267 267 268 268 269 270 270 271 271 272 272 272 271 270 270 270 270 270 271 271 271 271 271 270 270 270 270 270 269 269 269 269 269 268
257 258 259 259 260 260 261 263 264 263 262 262 262 263 265 266 267 267 267 267 268 270 273 276 277 276 274 273 273 273 274 274 275 275 276 276 276 276 276 276 275 275 274 273 272 271 271 270 270 269 269 269 270 270 270 270 270 271 271 272 273 273 272 272 272 272 272 272 271 271 271 271 271 271 271 270 270 269 269 269 268 268 268 268 268
249 249 249 251 253 252 251 253 257 260 261 263 264 264 265 267 268 268 268 269 270 272 274 275 275 274 274 273 273 273 273 274 274 274 274 274 274 274 274 274 274 275 275 274 274 274 274 273 273 273 273 273 273 273 272 272 272 272 272 272 272 272 272 272 272 272 272 272 271 271 271 271 270 270 270 270 270 269 269 268 268 268 267 267 267
250 250 250 250 252 253 252 253 256 260 263 265 266 267 268 270 270 270 270 270 271 272 273 273 273 273 274 274 274 274 275 275 275 274 274 273 273 273 273 273 273 273 273 274 275 275 275 275 275 275 275 275 274 274 273 273 273 272 272 272 272 272 273 273 273 273 272 272 272 272 271 271 270 270 270 270 269 269 269 269 269 269 268 268 268
254 255 255 255 255 256 257 257 259 261 262 264 265 266 267 268 269 269 269 270 271 271 271 271 272 272 273 274 274 275 276 276 275 274 274 273 272 272 272 272 272 272 272 273 274 274 275 275 276 276 276 276 275 275 275 275 274 273 273 274 274 274 274 274 274 274 274 274 273 273 272 272 272 271 271 271 271 271 271 271 271 271 271 271 271
258 258 258 258 258 259 259 259 260 261 262 262 263 264 265 266 266 267 267 268 268 269 269 269 270 271 272 272 273 274 274 275 274 274 273 273 272 271 271 271 271 271 272 273 274 274 275 276 276 277 277 277 277 276 276 275 276 276 276 276 276 276 276 277 277 277 277 276 276 276 275 275 274 274 274 274 274 273 273 273 273 273 272 272 272
259 259 259 259 260 260 261 261 261 261 262 262 262 263 263 264 264 264 265 265 266 266 267 268 269 270 270 271 271 271 272 272 273 273 273 272 272 272 271 271 271 272 272 273 274 275 276 276 277 277 277 277 277 277 277 277 278 278 278 277 278 278 278 279 279 279 279 279 279 279 278 277 277 276 276 275 275 275 275 275 274 274 274 273 273
260 259 259 260 260 260 260 260 261 261 262 263 263 264 264 264 263 263 264 264 265 265 266 267 267 268 268 269 269 269 269 270 271 272 271 271 271 271 271 272 272 273 274 275 275 276 277 277 278 278 278 278 278 278 278 279 279 279 279 279 279 280 280 280 281 281 281 281 281 280 280 279 279 278 277 276 276 275 275 275 274 274 274 274 273
262 261 261 261 260 260 260 259 259 259 260 261 262 263 263 263 263 264 264 264 265 265 266 265 265 266 267 268 268 267 267 269 270 270 270 270 270 270 270 271 272 273 274 274 275 276 276 277 278 278 278 278 278 279 279 279 279 279 280 280 280 280 281 282 282 282 283 282 282 282 281 280 279 279 278 277 277 276 275 274 274 273 273 273 273
262 262 262 262 262 261 261 260 259 259 258 258 258 259 260 261 262 263 264 264 264 265 265 264 264 265 266 267 267 266 267 267 268 268 268 268 268 269 270 271 272 273 274 275 275 275 276 276 277 278 278 278 278 278 278 279 279 280 280 281 281 282 283 284 284 284 284 283 283 282 281 280 280 279 279 278 277 277 276 276 275 274 274 273 273
261 261 261 261 262 262 262 261 261 260 259 258 257 256 257 258 259 261 262 263 263 264 264 264 263 263 263 263 265 267 268 267 266 266 266 267 267 268 269 271 272 274 275 275 276 276 276 277 277 278 278 278 278 279 279 280 281 282 283 283 284 285 285 285 285 284 284 283 282 282 281 281 281 281 280 280 279 279 279 279 278 277 277 277 276
260 260 260 260 261 261 261 261 261 261 261 260 259 257 256 255 256 258 259 260 261 262 262 263 263 263 263 263 265 266 267 266 264 264 264 265 267 268 270 271 273 274 275 275 276 277 277 278 278 279 279 279 280 280 281 283 284 284 285 285 286 285 285 285 285 284 284 284 284 284 283 283 282 282 282 281 281 281 281 280 280 279 279 278 277
258 259 259 259 259 259 259 259 260 260 261 261 260 259 257 255 253 254 256 257 258 259 260 261 262 262 263 264 266 266 266 265 264 263 263 264 266 268 269 271 272 273 274 275 276 277 278 279 279 280 280 281 282 283 284 285 286 286 286 287 287 287 287 287 287 287 286 286 286 286 285 285 284 284 284 283 283 282 282 281 281 280 280 278 277
258 258 258 258 258 258 258 258 258 258 258 259 259 258 257 255 253 251 252 253 255 256 257 259 260 260 261 263 264 265 265 265 264 263 263 264 265 266 268 269 271 272 273 275 276 277 278 279 279 280 281 282 284 285 286 286 288 289 290 291 291 291 290 290 290 289 288 288 287 287 286 286 286 285 285 285 284 283 283 282 281 281 280 279 278
257 257 256 256 256 256 256 256 257 256 256 257 257 257 257 256 253 251 250 250 251 253 254 256 257 258 259 260 261 262 263 264 263 263 264 264 265 266 267 268 269 271 272 274 275 276 277 278 279 280 281 282 284 286 288 291 294 296 296 296 296 295 293 292 291 290 289 288 287 287 286 286 287 287 287 287 286 285 284 283 282 282 282 281 281
256 255 254 254 254 254 254 254 254 254 254 255 255 256 256 255 254 252 250 249 249 250 251 253 255 256 257 258 259 260 262 262 263 263 264 265 265 266 267 267 268 270 271 273 274 275 276 277 277 278 279 281 285 290 296 301 305 306 305 304 302 299 297 295 292 291 289 288 288 288 288 289 289 290 289 288 287 286 285 284 284 285 285 285 285
257 255 254 253 253 252 252 252 252 252 252 252 252 253 253 253 252 251 250 249 249 249 249 251 253 255 256 257 258 259 260 261 261 262 263 264 264 265 266 267 268 270 271 272 272 272 272 271 271 272 275 281 290 299 307 313 316 317 317 314 311 307 303 298 295 293 292 291 291 292 293 294 294 294 293 291 289 288 287 287 288 288 288 288 287
262 259 256 254 252 251 251 251 250 249 249 249 249 249 250 250 250 250 250 249 249 248 249 250 252 253 254 255 256 257 258 259 260 261 262 262 263 264 265 266 268 268 268 267 265 263 261 259 259 262 268 280 296 309 316 321 324 325 325 321 317 312 307 302 299 297 296 296 297 300 302 303 304 303 302 299 296 294 293 292 291 289 288 287 286
262 260 258 255 252 250 249 249 250 248 247 246 245 245 246 247 247 247 247 247 246 246 246 247 248 250 251 253 254 255 256 257 258 259 260 261 262 263 264 265 264 262 259 254 249 244 241 240 242 246 258 282 304 316 321 325 328 330 329 326 322 317 312 307 304 301 300 301 305 309 311 313 313 310 305 301 299 297 294 292 290 289 289 288 286
259 257 255 253 251 249 247 248 249 247 245 243 241 241 242 242 242 243 242 241 240 239 240 242 244 246 248 250 251 252 253 253 254 255 257 259 261 261 260 257 252 245 236 229 224 225 227 228 227 231 255 295 314 322 325 327 330 333 334 333 329 323 316 312 309 307 307 308 311 313 315 313 309 304 300 298 297 295 293 293 292 292 292 292 291
258 252 249 247 246 244 244 245 246 244 241 239 236 236 236 236 235 234 233 231 229 228 230 235 239 242 244 245 245 245 245 246 248 250 253 255 255 252 246 235 223 214 212 215 218 221 219 216 215 227 270 309 319 323 326 329 333 337 339 339 335 328 319 314 315 315 315 315 316 316 314 308 303 302 301 299 298 298 297 297 297 296 296 298 298
256 250 243 238 237 238 239 239 239 238 236 232 228 227 226 225 223 221 218 215 214 217 220 226 232 236 236 235 234 235 236 239 242 244 244 243 238 229 216 208 207 210 214 217 218 215 210 208 212 232 288 311 316 322 327 332 337 342 344 345 344 338 326 318 320 322 320 320 322 318 312 308 309 311 309 304 302 304 304 305 305 307 309 312 313
254 240 227 221 224 229 229 228 228 226 219 209 204 203 204 205 205 203 200 200 205 212 217 220 224 227 225 221 221 224 228 231 231 227 220 217 217 214 212 212 215 217 216 215 212 208 206 206 212 235 284 303 313 323 331 336 341 345 348 351 352 349 337 324 324 326 321 323 324 317 310 314 322 323 318 312 311 314 319 321 323 326 329 330 329
248 215 204 206 213 218 218 216 209 193 175 165 163 165 173 187 194 192 192 197 204 208 211 214 215 214 212 212 213 216 218 218 214 210 210 213 218 219 216 213 212 213 213 211 208 205 204 206 214 240 277 300 315 327 335 340 345 348 352 356 359 357 349 334 326 325 320 322 324 318 313 319 325 324 322 322 323 327 336 341 341 343 344 342 339
59 187 194 198 202 204 205 197 179 162 151 148 150 151 162 185 194 192 192 197 200 200 201 203 205 207 209 209 209 209 209 209 209 211 215 217 216 211 206 204 207 210 209 207 205 205 207 211 223 246 277 302 318 329 337 343 347 350 354 359 2 2 358 346 331 327 328 327 325 322 319 321 325 329 330 328 329 337 347 350 350 351 350 348 345
62 78 116 158 170 174 177 173 163 153 148 154 163 167 176 185 187 186 185 186 187 190 195 199 203 206 208 205 203 204 207 210 213 215 213 207 202 200 200 203 206 207 205 205 207 209 212 220 232 252 279 303 318 327 338 346 348 351 357 1 3 4 3 356 339 326 331 332 328 328 330 331 335 341 340 332 332 342 350 353 355 355 351 348 347
65 71 77 90 111 129 147 157 158 155 154 159 163 165 168 170 171 174 179 183 187 193 199 201 202 203 202 200 201 205 208 210 209 205 198 194 194 197 202 204 204 204 206 210 213 215 220 228 240 257 277 299 314 325 338 347 349 352 359 3 4 5 6 2 352 332 329 334 334 333 336 339 344 347 341 336 337 343 348 354 359 359 353 351 350
69 73 78 86 96 109 125 139 148 151 152 154 155 155 158 163 169 176 184 190 194 196 198 199 200 199 198 198 201 205 206 202 196 191 190 191 195 200 202 203 203 207 213 217 218 222 228 236 247 261 277 296 312 324 337 346 349 352 359 3 3 4 6 6 2 350 333 331 335 336 337 342 348 347 340 333 335 342 348 356 3 3 359 357 355
79 80 84 91 98 108 117 125 134 143 150 154 155 156 160 167 174 179 183 187 190 193 196 198 198 196 195 197 199 200 197 192 189 189 192 195 198 200 203 206 212 217 221 222 223 227 235 243 252 264 278 293 308 321 334 343 347 352 358 2 3 3 5 6 6 2 350 332 324 328 332 336 342 345 341 332 332 343 352 360 5 7 6 3 360
94 93 93 95 98 106 116 125 134 145 153 158 162 164 168 174 181 184 186 187 187 191 195 198 197 197 197 197 196 192 188 188 190 193 195 197 201 207 212 217 222 226 227 227 228 234 242 251 257 264 276 289 302 317 329 337 344 351 356 359 1 2 2 3 5 6 2 349 325 314 320 328 336 344 345 338 337 345 355 1 6 8 8 8 8
96 100 103 105 106 109 115 123 131 143 155 165 171 176 181 187 192 194 193 191 191 194 197 199 200 201 199 195 190 187 186 188 192 194 197 203 211 217 221 225 229 232 232 233 237 243 250 257 261 266 275 286 298 311 323 330 337 346 352 356 359 360 360 0 3 5 6 3 351 327 313 318 331 341 346 345 345 347 350 353 0 5 6 9 14
85 91 98 104 109 114 120 125 130 137 150 168 182 190 195 196 195 196 197 199 200 201 200 200 200 199 195 190 187 186 186 189 193 196 203 213 219 223 226 230 234 236 238 240 244 251 257 261 265 269 275 284 294 304 314 323 330 337 345 352 356 356 357 358 360 2 5 7 4 354 331 312 316 329 340 348 352 350 346 345 351 357 359 3 11
76 83 91 101 112 121 130 140 147 148 148 156 173 187 196 198 198 199 200 201 200 199 197 197 196 193 189 186 185 186 188 192 197 204 213 220 225 228 232 235 238 242 244 246 249 255 260 263 268 272 276 281 289 297 306 315 322 328 336 344 349 351 353 356 357 358 1 4 6 5 356 334 312 314 327 340 348 348 344 344 345 347 351 356 3
Height
5728 5728 5729 5730 5730 5730 5730 5729 5729 5730 5730 5730 5731 5732 5732 5731 5730 5730 5730 5730 5731 5731 5732 5732 5733 5733 5734 5734 5735 5735 5735 5735 5735 5735 5736 5736 5735 5735 5735 5735 5735 5735 5735 5735 5735 5736 5736 5736 5736 5737 5737 5736 5737 5737 5736 5736 5736 5736 5736 5736 5736 5737 5737 5738 5738 5738 5738 5738 5738 5739 5739 5739 5739 5739 5739 5739 5739 5739 5739 5739 5739 5739 5739 5739 5739
5727 5727 5728 5728 5728 5728 5727 5727 5726 5727 5727 5727 5729 5729 5729 5728 5728 5727 5727 5727 5728 5729 5729 5729 5730 5731 5732 5733 5733 5733 5733 5733 5733 5733 5733 5733 5733 5733 5733 5733 5733 5733 5733 5734 5734 5734 5734 5734 5734 5735 5735 5735 5735 5735 5735 5735 5735 5734 5734 5735 5735 5735 5735 5736 5736 5736 5737 5737 5737 5737 5737 5738 5738 5738 5738 5738 5738 5738 5738 5738 5737 5737 5737 5737 5737
5725 5725 5725 5725 5725 5724 5724 5723 5723 5724 5725 5725 5725 5725 5725 5725 5726 5725 5724 5724 5725 5726 5726 5727 5728 5729 5730 5730 5730 5730 5731 5731 5731 5731 5731 5731 5731 5731 5731 5731 5731 5731 5732 5732 5732 5732 5732 5732 5733 5733 5733 5733 5733 5733 5732 5732 5732 5732 5732 5732 5732 5732 5733 5733 5734 5734 5734 5735 5735 5735 5736 5736 5736 5736 5736 5736 5736 5736 5736 5736 5736 5736 5735 5735 5735
5721 5721 5722 5722 5721 5721 5721 5721 5721 5721 5722 5722 5722 5722 5722 5723 5724 5723 5723 5722 5722 5723 5723 5723 5724 5725 5726 5727 5727 5727 5728 5728 5729 5729 5729 5729 5729 5729 5729 5729 5729 5729 5730 5730 5730 5730 5730 5731 5731 5731 5731 5731 5731 5731 5730 5730 5730 5730 5729 5730 5730 5730 5730 5730 5731 5731 5731 5732 5732 5732 5733 5733 5734 5734 5734 5734 5734 5734 5734 5734 5734 5734 5734 5733 5733
5717 5717 5718 5718 5718 5718 5718 5718 5718 5718 5718 5719 5720 5720 5720 5721 5721 5721 5720 5721 5721 5721 5721 5721 5720 5721 5723 5724 5724 5724 5725 5725 5725 5726 5726 5726 5726 5726 5726 5726 5726 5726 5727 5727 5728 5728 5728 5728 5728 5729 5729 5729 5729 5729 5729 5728 5728 5727 5727 5727 5727 5727 5727 5728 5728 5728 5728 5728 5729 5729 5729 5730 5730 5731 5731 5731 5731 5732 5732 5732 5732 5732 5731 5731 5731
5713 5714 5714 5714 5714 5714 5715 5715 5715 5715 5716 5717 5718 5718 5718 5718 5719 5719 5719 5719 5719 5719 5720 5720 5719 5719 5720 5720 5720 5721 5721 5722 5722 5722 5722 5723 5723 5724 5724 5724 5724 5724 5724 5724 5725 5725 5725 5725 5725 5726 5726 5726 5726 5727 5727 5726 5726 5726 5725 5725 5725 5725 5725 5725 5725 5725 5725 5725 5726 5726 5726 5727 5727 5727 5728 5728 5728 5728 5728 5728 5728 5728 5728 5728 5728
5709 5710 5711 5711 5711 5711 5711 5712 5712 5712 5713 5714 5714 5715 5715 5716 5716 5717 5717 5716 5716 5717 5717 5718 5718 5718 5717 5717 5717 5717 5718 5719 5718 5718 5719 5719 5719 5720 5721 5721 5721 5721 5721 5721 5721 5721 5722 5722 5722 5722 5723 5723 5724 5724 5724 5724 5724 5723 5723 5723 5722 5722 5722 5722 5723 5723 5723 5723 5723 5723 5723 5723 5724 5724 5724 5725 5725 5725 5725 5724 5724 5724 5725 5725 5724
5705 5706 5706 5706 5706 5706 5707 5708 5708 5708 5709 5709 5710 5710 5711 5712 5713 5714 5713 5713 5713 5713 5714 5714 5714 5715 5714 5714 5714 5714 5714 5715 5715 5715 5715 5715 5715 5716 5717 5718 5718 5718 5718 5718 5718 5718 5718 5718 5718 5719 5719 5720 5720 5721 5720 5720 5720 5720 5720 5720 5719 5719 5719 5720 5720 5720 5720 5720 5720 5720 5720 5720 5720 5720 5720 5720 5721 5721 5721 5721 5721 5720 5720 5721 5720
5701 5701 5701 5701 5701 5702 5702 5703 5703 5703 5704 5705 5705 5706 5707 5708 5710 5710 5710 5709 5709 5709 5709 5709 5709 5710 5710 5710 5711 5711 5711 5711 5711 5711 5711 5711 5712 5712 5713 5713 5714 5714 5714 5713 5713 5714 5714 5714 5713 5714 5715 5716 5716 5717 5717 5717 5717 5717 5717 5716 5716 5716 5716 5716 5716 5716 5716 5717 5717 5717 5717 5716 5716 5716 5716 5716 5716 5716 5717 5717 5717 5717 5716 5716 5715
5696 5696 5696 5697 5697 5697 5698 5698 5699 5699 5699 5700 5701 5702 5702 5703 5704 5705 5705 5705 5705 5705 5705 5703 5704 5705 5706 5706 5707 5707 5707 5706 5706 5707 5707 5708 5708 5708 5708 5709 5709 5709 5709 5709 5709 5709 5709 5709 5709 5709 5710 5711 5712 5712 5712 5712 5712 5713 5713 5712 5712 5711 5711 5711 5711 5712 5712 5712 5712 5712 5712 5712 5712 5712 5712 5712 5711 5711 5711 5712 5712 5712 5712 5712 5710
5692 5692 5692 5692 5693 5693 5693 5693 5693 5694 5695 5695 5696 5696 5697 5697 5698 5698 5699 5700 5700 5700 5699 5697 5698 5699 5699 5700 5701 5701 5701 5701 5701 5702 5703 5703 5703 5704 5704 5704 5704 5704 5704 5704 5705 5705 5704 5703 5704 5704 5704 5705 5706 5707 5707 5708 5707 5707 5708 5708 5707 5707 5706 5706 5707 5707 5707 5707 5707 5706 5707 5707 5706 5706 5707 5707 5706 5706 5706 5706 5706 5706 5706 5707 5706
5686 5686 5687 5687 5687 5687 5687 5687 5687 5688 5689 5689 5690 5691 5691 5692 5693 5693 5693 5693 5693 5692 5691 5691 5691 5692 5693 5694 5695 5695 5695 5696 5696 5697 5697 5698 5698 5699 5699 5699 5699 5699 5699 5699 5700 5700 5699 5699 5698 5698 5698 5699 5699 5700 5701 5702 5702 5702 5702 5703 5703 5702 5701 5701 5702 5702 5702 5701 5701 5701 5701 5701 5701 5700 5700 5700 5700 5700 5700 5700 5700 5701 5700 5700 5700
5679 5679 5680 5680 5680 5680 5680 5681 5681 5681 5682 5683 5684 5684 5685 5686 5687 5687 5687 5687 5687 5686 5686 5687 5687 5688 5689 5689 5690 5690 5690 5690 5690 5691 5691 5692 5692 5693 5694 5694 5694 5694 5694 5694 5694 5694 5694 5694 5693 5693 5693 5693 5693 5694 5695 5695 5695 5696 5697 5698 5698 5696 5695 5695 5696 5696 5696 5695 5695 5694 5694 5694 5694 5693 5693 5693 5693 5693 5693 5693 5693 5693 5693 5693 5694
5673 5673 5674 5674 5674 5674 5674 5674 5675 5675 5676 5677 5677 5678 5679 5680 5680 5681 5681 5682 5682 5682 5683 5683 5683 5684 5684 5685 5685 5685 5684 5684 5685 5685 5685 5686 5686 5687 5688 5688 5688 5688 5688 5688 5688 5688 5688 5687 5687 5687 5687 5688 5688 5688 5688 5688 5688 5689 5690 5691 5692 5690 5689 5689 5689 5689 5689 5688 5688 5687 5687 5687 5686 5686 5685 5685 5685 5685 5685 5685 5685 5684 5685 5685 5685
5666 5667 5668 5668 5668 5668 5669 5669 5669 5670 5671 5672 5672 5673 5674 5674 5675 5675 5676 5677 5677 5678 5678 5679 5679 5679 5679 5679 5679 5679 5679 5679 5679 5679 5679 5680 5680 5681 5681 5681 5682 5682 5682 5682 5682 5682 5682 5681 5681 5681 5681 5681 5681 5681 5681 5681 5681 5682 5682 5683 5683 5683 5682 5682 5682 5681 5681 5680 5679 5679 5679 5679 5678 5677 5677 5676 5676 5676 5676 5676 5676 5676 5676 5677 5676
5660 5661 5661 5661 5662 5662 5663 5663 5664 5665 5666 5667 5667 5668 5668 5669 5669 5670 5671 5671 5672 5673 5673 5673 5673 5673 5673 5673 5673 5673 5672 5672 5672 5672 5673 5673 5674 5674 5674 5674 5675 5675 5675 5676 5676 5676 5676 5675 5675 5675 5675 5675 5675 5675 5675 5674 5674 5675 5675 5675 5675 5674 5674 5674 5673 5673 5673 5672 5671 5670 5670 5670 5669 5669 5668 5667 5667 5667 5667 5667 5666 5666 5667 5668 5668
5655 5655 5655 5655 5656 5656 5657 5657 5659 5659 5660 5661 5661 5662 5662 5663 5664 5664 5665 5666 5666 5666 5666 5667 5667 5667 5667 5667 5667 5666 5666 5666 5666 5666 5666 5666 5667 5667 5667 5668 5668 5668 5668 5669 5669 5669 5669 5669 5669 5668 5668 5668 5668 5668 5668 5667 5667 5667 5667 5667 5667 5666 5666 5666 5665 5665 5664 5663 5663 5662 5661 5661 5660 5660 5659 5658 5658 5658 5658 5657 5656 5656 5657 5657 5658
5649 5649 5649 5650 5650 5650 5650 5651 5652 5653 5653 5654 5654 5655 5656 5656 5657 5658 5659 5659 5660 5660 5660 5661 5661 5661 5661 5661 5661 5660 5660 5659 5659 5659 5659 5659 5660 5660 5661 5661 5662 5662 5662 5662 5662 5662 5662 5662 5662 5662 5662 5661 5661 5661 5660 5660 5660 5659 5659 5659 5658 5658 5658 5657 5657 5656 5655 5655 5654 5653 5652 5652 5651 5651 5650 5649 5648 5648 5648 5647 5646 5646 5646 5647 5647
5642 5642 5643 5643 5644 5644 5644 5644 5645 5645 5646 5646 5647 5647 5648 5649 5650 5651 5652 5652 5652 5653 5653 5653 5654 5654 5654 5654 5654 5654 5653 5653 5653 5653 5653 5653 5653 5653 5654 5654 5655 5655 5655 5656 5656 5656 5656 5655 5655 5655 5655 5655 5654 5654 5653 5653 5652 5651 5651 5650 5650 5650 5649 5648 5648 5647 5647 5646 5645 5645 5644 5643 5642 5641 5641 5640 5639 5638 5637 5637 5636 5636 5636 5636 5636
5634 5635 5636 5636 5636 5637 5638 5638 5638 5638 5638 5639 5640 5640 5641 5642 5643 5644 5645 5645 5645 5645 5645 5646 5646 5646 5646 5646 5647 5647 5647 5647 5647 5647 5647 5647 5647 5647 5647 5647 5648 5648 5648 5648 5648 5648 5648 5648 5648 5648 5648 5647 5647 5647 5646 5645 5644 5644 5643 5642 5642 5641 5640 5639 5639 5639 5638 5637 5636 5636 5634 5633 5632 5632 5631 5630 5629 5628 5627 5627 5627 5626 5626 5626 5626
5626 5627 5628 5628 5628 5629 5631 5631 5631 5631 5632 5632 5633 5633 5634 5635 5636 5636 5637 5637 5637 5638 5638 5638 5638 5638 5638 5639 5639 5639 5640 5640 5640 5640 5641 5641 5641 5641 5641 5641 5641 5641 5641 5641 5641 5641 5641 5641 5640 5640 5640 5640 5640 5639 5638 5638 5637 5636 5636 5635 5634 5633 5632 5631 5630 5630 5629 5628 5627 5626 5625 5624 5623 5622 5621 5621 5620 5619 5618 5617 5617 5616 5615 5615 5615
5617 5618 5620 5620 5620 5621 5623 5623 5624 5624 5625 5625 5626 5626 5626 5627 5628 5628 5629 5629 5629 5630 5630 5630 5631 5630 5631 5631 5631 5632 5632 5633 5633 5634 5634 5634 5634 5634 5635 5635 5635 5635 5635 5634 5634 5634 5634 5634 5633 5633 5633 5633 5632 5631 5631 5630 5630 5629 5628 5627 5626 5625 5624 5623 5622 5621 5620 5619 5618 5617 5616 5615 5614 5613 5612 5611 5610 5609 5609 5608 5607 5606 5605 5605 5605
5609 5610 5611 5612 5613 5613 5614 5615 5615 5616 5617 5617 5618 5618 5619 5620 5620 5621 5621 5621 5621 5622 5622 5623 5623 5623 5623 5624 5624 5625 5625 5626 5626 5627 5627 5627 5628 5628 5628 5628 5628 5628 5628 5628 5628 5628 5627 5627 5627 5626 5626 5626 5625 5625 5624 5623 5622 5621 5620 5619 5618 5617 5616 5615 5614 5612 5612 5610 5609 5608 5607 5605 5605 5604 5603 5602 5601 5600 5599 5598 5597 5596 5596 5595 5594
5599 5600 5602 5603 5604 5605 5605 5606 5607 5607 5608 5608 5610 5610 5611 5612 5613 5613 5613 5613 5614 5614 5615 5615 5616 5616 5617 5617 5618 5619 5619 5619 5620 5620 5620 5621 5621 5621 5622 5622 5622 5622 5622 5622 5622 5621 5621 5621 5620 5620 5620 5619 5618 5618 5617 5615 5615 5614 5613 5612 5611 5609 5608 5607 5606 5605 5603 5602 5601 5600 5598 5597 5595 5595 5594 5592 5591 5590 5589 5588 5587 5586 5586 5586 5585
5589 5590 5591 5593 5594 5595 5596 5597 5598 5598 5598 5599 5601 5602 5603 5604 5605 5605 5605 5606 5607 5607 5608 5609 5609 5610 5610 5611 5612 5613 5613 5613 5614 5614 5614 5614 5614 5615 5615 5616 5616 5616 5616 5616 5616 5615 5615 5614 5614 5613 5613 5612 5611 5610 5610 5609 5608 5607 5606 5605 5603 5602 5601 5600 5598 5597 5596 5594 5593 5592 5590 5589 5587 5586 5585 5584 5583 5582 5580 5579 5579 5578 5577 5577 5576
5578 5580 5581 5582 5583 5585 5587 5588 5588 5589 5589 5590 5591 5593 5594 5595 5596 5597 5598 5599 5600 5601 5602 5603 5603 5603 5604 5605 5606 5606 5607 5607 5607 5608 5608 5607 5608 5608 5609 5609 5610 5610 5610 5610 5609 5609 5608 5608 5607 5607 5606 5606 5605 5604 5603 5602 5601 5600 5599 5598 5596 5595 5594 5592 5591 5590 5589 5587 5586 5584 5583 5581 5579 5578 5576 5575 5574 5573 5571 5570 5570 5569 5568 5567 5567
5568 5569 5570 5571 5572 5574 5576 5577 5579 5580 5581 5582 5582 5583 5584 5586 5587 5588 5590 5591 5593 5595 5596 5597 5597 5597 5598 5598 5599 5599 5600 5601 5601 5601 5601 5601 5602 5602 5603 5603 5604 5604 5604 5604 5604 5603 5603 5602 5601 5601 5600 5599 5599 5598 5597 5596 5595 5593 5592 5591 5590 5588 5587 5586 5584 5583 5581 5580 5578 5576 5574 5573 5571 5569 5568 5567 5565 5564 5562 5561 5561 5560 5559 5558 5558
5557 5558 5560 5561 5561 5563 5564 5566 5568 5569 5572 5573 5575 5575 5576 5577 5578 5580 5582 5584 5586 5587 5589 5590 5590 5591 5591 5591 5591 5592 5594 5595 5595 5595 5595 5595 5596 5596 5597 5597 5598 5598 5598 5598 5597 5597 5597 5596 5596 5595 5594 5594 5593 5592 5591 5590 5588 5587 5586 5584 5583 5581 5580 5578 5577 5575 5573 5572 5570 5568 5566 5564 5562 5561 5559 5558 5556 5554 5552 5551 5551 5550 5549 5549 5549
5547 5548 5550 5550 5551 5553 5554 5555 5557 5558 5561 5564 5566 5568 5569 5570 5571 5572 5574 5576 5578 5579 5581 5582 5582 5583 5584 5583 5584 5586 5588 5588 5589 5589 5589 5590 5590 5591 5591 5591 5592 5592 5592 5592 5592 5592 5591 5591 5590 5590 5589 5588 5587 5586 5585 5583 5582 5581 5579 5578 5576 5574 5573 5571 5569 5567 5565 5563 5561 5559 5557 5556 5554 5552 5551 5549 5548 5546 5544 5543 5542 5541 5541 5540 5540
5537 5538 5540 5541 5542 5543 5544 5546 5547 5548 5551 5553 5556 5559 5561 5563 5565 5566 5567 5568 5570 5572 5573 5574 5575 5576 5577 5577 5579 5581 5582 5583 5583 5584 5584 5584 5585 5585 5586 5586 5586 5586 5586 5586 5586 5586 5586 5586 5585 5584 5583 5582 5581 5580 5579 5578 5576 5574 5573 5571 5569 5567 5565 5563 5561 5559 5557 5555 5553 5551 5550 5548 5546 5545 5543 5541 5540 5538 5536 5534 5533 5533 5532 5531 5531
5528 5529 5530 5531 5533 5534 5535 5537 5538 5540 5542 5543 5546 5549 5552 5556 5558 5560 5560 5561 5563 5564 5566 5567 5568 5569 5571 5572 5573 5575 5576 5577 5578 5578 5579 5579 5580 5580 5580 5580 5580 5580 5581 5581 5581 5581 5580 5580 5579 5579 5578 5577 5576 5575 5573 5572 5570 5569 5567 5565 5563 5561 5559 5557 5555 5552 5550 5548 5546 5544 5542 5540 5538 5536 5535 5533 5532 5530 5528 5526 5524 5524 5523 5522 5521
5519 5521 5522 5522 5523 5524 5526 5528 5529 5531 5533 5535 5537 5540 5543 5547 5551 5554 5554 5555 5556 5558 5559 5560 5562 5564 5565 5566 5568 5569 5570 5571 5572 5573 5573 5574 5574 5575 5575 5575 5575 5575 5575 5576 5576 5575 5575 5575 5574 5573 5572 5572 5571 5570 5568 5567 5565 5564 5562 5560 5558 5555 5553 5551 5548 5546 5543 5541 5538 5536 5534 5532 5530 5528 5526 5525 5524 5522 5520 5518 5516 5515 5514 5513 5512
5509 5511 5512 5513 5514 5515 5516 5518 5520 5523 5525 5527 5529 5531 5534 5539 5543 5546 5547 5548 5550 5552 5554 5555 5556 5558 5560 5561 5562 5563 5565 5566 5567 5568 5568 5569 5569 5569 5569 5569 5570 5570 5570 5571 5571 5570 5570 5569 5569 5568 5568 5567 5566 5565 5564 5563 5562 5560 5558 5556 5553 5551 5548 5545 5542 5539 5536 5534 5531 5529 5527 5525 5523 5521 5519 5517 5516 5514 5512 5510 5509 5508 5507 5505 5504
5498 5500 5501 5503 5504 5506 5507 5509 5511 5513 5516 5518 5521 5523 5526 5531 5534 5537 5539 5542 5544 5546 5548 5550 5551 5553 5554 5556 5557 5558 5559 5560 5562 5562 5563 5563 5564 5564 5564 5564 5565 5565 5565 5566 5566 5565 5565 5565 5564 5564 5564 5563 5563 5562 5561 5560 5559 5557 5555 5552 5549 5546 5543 5539 5536 5533 5530 5527 5524 5522 5520 5519 5517 5515 5513 5511 5509 5508 5506 5505 5504 5502 5501 5500 5499
5488 5489 5491 5492 5494 5496 5498 5499 5501 5504 5507 5510 5513 5516 5519 5522 5526 5529 5532 5535 5537 5540 5542 5544 5546 5547 5549 5550 5552 5553 5554 5555 5557 5557 5558 5558 5559 5559 5559 5559 5560 5560 5561 5561 5561 5561 5561 5561 5561 5561 5561 5561 5560 5560 5559 5558 5556 5554 5551 5548 5544 5541 5537 5533 5529 5526 5523 5520 5518 5516 5515 5513 5512 5510 5508 5507 5505 5504 5502 5501 5500 5499 5497 5496 5494
5480 5481 5482 5483 5485 5486 5488 5490 5492 5495 5498 5501 5504 5508 5511 5514 5518 5522 5525 5528 5531 5534 5537 5539 5540 5542 5544 5545 5547 5548 5550 5551 5552 5552 5553 5553 5554 5554 5554 5555 5555 5556 5556 5556 5556 5557 5557 5558 5558 5558 5559 5559 5559 5558 5557 5555 5553 5550 5547 5543 5540 5535 5531 5526 5522 5519 5517 5515 5513 5512 5511 5509 5508 5507 5505 5504 5502 5501 5499 5498 5497 5495 5494 5492 5491
5473 5474 5476 5477 5477 5479 5480 5482 5484 5487 5490 5493 5496 5500 5504 5508 5511 5515 5519 5523 5526 5529 5531 5533 5535 5537 5539 5541 5542 5544 5545 5546 5547 5547 5548 5548 5549 5549 5550 5550 5551 5551 5552 5552 5553 5554 5555 5555 5556 5557 5557 5557 5557 5556 5554 5552 5550 5547 5543 5539 5534 5530 5525 5520 5517 5515 5513 5512 5510 5509 5508 5506 5505 5504 5503 5501 5500 5498 5497 5495 5493 5492 5490 5488 5487
5466 5467 5469 5470 5471 5473 5475 5476 5478 5480 5483 5486 5489 5493 5497 5501 5506 5510 5514 5517 5520 5523 5526 5529 5531 5533 5535 5537 5538 5540 5541 5541 5542 5543 5543 5544 5544 5545 5546 5546 5547 5548 5549 5549 5551 5552 5553 5554 5555 5555 5556 5555 5554 5553 5551 5549 5547 5544 5540 5535 5530 5524 5519 5516 5514 5512 5511 5509 5508 5506 5505 5504 5503 5502 5500 5499 5497 5495 5494 5492 5490 5488 5486 5484 5483
5461 5461 5462 5464 5466 5468 5470 5472 5474 5476 5478 5480 5484 5488 5492 5497 5501 5505 5509 5512 5516 5519 5522 5525 5527 5529 5531 5533 5534 5535 5536 5537 5538 5539 5539 5540 5541 5541 5542 5543 5544 5546 5547 5548 5549 5550 5551 5552 5553 5553 5553 5552 5552 5550 5549 5547 5544 5541 5537 5532 5526 5520 5516 5513 5511 5510 5508 5507 5506 5505 5503 5502 5501 5500 5498 5496 5495 5493 5491 5489 5487 5485 5483 5481 5479
5456 5456 5458 5460 5462 5464 5466 5468 5470 5472 5474 5476 5479 5483 5488 5492 5497 5501 5505 5509 5513 5515 5518 5521 5524 5526 5527 5529 5531 5532 5532 5534 5535 5536 5537 5537 5538 5539 5540 5541 5543 5544 5545 5546 5548 5549 5550 5551 5551 5551 5551 5550 5550 5548 5547 5544 5541 5538 5534 5529 5523 5517 5513 5511 5509 5507 5506 5505 5504 5503 5502 5501 5500 5498 5496 5495 5493 5491 5489 5487 5484 5482 5480 5478 5476
5452 5453 5454 5457 5459 5461 5463 5465 5467 5469 5471 5473 5476 5480 5484 5489 5493 5497 5502 5506 5510 5512 5515 5518 5520 5523 5525 5526 5527 5528 5530 5531 5533 5534 5534 5535 5536 5537 5539 5540 5541 5543 5544 5545 5546 5547 5548 5549 5549 5549 5549 5548 5547 5546 5544 5542 5539 5536 5532 5527 5521 5515 5511 5509 5507 5506 5505 5505 5503 5502 5501 5500 5498 5497 5495 5493 5491 5489 5487 5485 5483 5481 5478 5476 5474
5451 5452 5453 5455 5457 5459 5461 5463 5465 5467 5469 5472 5475 5478 5482 5487 5491 5495 5499 5503 5506 5509 5512 5515 5518 5520 5522 5523 5524 5526 5528 5529 5531 5532 5533 5534 5535 5536 5537 5539 5540 5541 5542 5543 5545 5545 5546 5547 5547 5547 5547 5547 5545 5544 5542 5540 5537 5534 5530 5525 5519 5514 5510 5508 5506 5505 5505 5504 5503 5501 5500 5499 5497 5495 5494 5492 5490 5488 5486 5484 5482 5480 5477 5475 5473
5453 5453 5454 5455 5457 5459 5460 5462 5465 5467 5469 5472 5475 5478 5482 5486 5491 5494 5497 5501 5504 5507 5510 5513 5516 5518 5519 5521 5522 5524 5526 5527 5529 5530 5531 5532 5533 5535 5536 5537 5538 5540 5541 5542 5543 5544 5544 5545 5545 5545 5545 5545 5543 5542 5540 5538 5535 5532 5528 5523 5518 5513 5509 5507 5505 5504 5504 5503 5502 5500 5499 5498 5496 5494 5493 5491 5490 5488 5485 5483 5481 5479 5477 5475 5473
5456 5456 5456 5457 5458 5460 5461 5463 5466 5469 5471 5473 5477 5480 5483 5487 5490 5494 5497 5500 5504 5507 5510 5512 5514 5516 5517 5519 5521 5522 5524 5525 5527 5528 5529 5530 5532 5533 5534 5536 5537 5538 5540 5541 5542 5542 5543 5543 5544 5544 5543 5543 5542 5541 5539 5536 5534 5531 5527 5523 5518 5514 5510 5507 5505 5504 5503 5502 5501 5500 5498 5497 5495 5494 5492 5491 5489 5487 5485 5483 5481 5479 5477 5475 5473
5461 5460 5460 5460 5461 5462 5464 5467 5470 5472 5474 5476 5479 5482 5485 5488 5491 5495 5498 5501 5504 5506 5509 5511 5512 5514 5516 5517 5519 5521 5522 5523 5525 5526 5527 5529 5530 5532 5533 5535 5536 5537 5538 5539 5540 5541 5541 5542 5542 5542 5542 5541 5540 5539 5537 5535 5533 5530 5526 5522 5519 5515 5511 5508 5506 5504 5503 5501 5500 5499 5498 5496 5495 5494 5492 5491 5489 5487 5485 5483 5481 5479 5477 5475 5473
5467 5466 5466 5466 5466 5467 5469 5471 5473 5475 5477 5480 5482 5485 5488 5490 5493 5496 5499 5501 5503 5505 5507 5509 5511 5512 5514 5516 5518 5519 5520 5522 5523 5525 5526 5528 5529 5531 5532 5533 5535 5536 5537 5538 5539 5539 5540 5540 5540 5540 5540 5539 5538 5537 5535 5533 5531 5528 5525 5522 5519 5516 5513 5509 5506 5504 5502 5501 5499 5498 5497 5496 5495 5494 5492 5490 5489 5487 5485 5483 5481 5479 5478 5476 5474
5472 5472 5471 5471 5472 5472 5474 5475 5477 5479 5481 5483 5485 5487 5490 5492 5494 5497 5499 5501 5503 5505 5506 5508 5510 5511 5513 5515 5516 5518 5519 5520 5522 5524 5525 5526 5528 5529 5531 5532 5533 5534 5535 5536 5537 5537 5538 5538 5538 5538 5538 5537 5536 5535 5533 5532 5530 5527 5525 5522 5519 5517 5513 5510 5507 5504 5502 5500 5499 5498 5497 5496 5495 5493 5492 5490 5489 5487 5485 5483 5482 5480 5478 5476 5474
5476 5476 5476 5476 5477 5478 5479 5480 5481 5482 5484 5486 5487 5489 5491 5493 5495 5497 5499 5500 5502 5504 5505 5507 5509 5511 5512 5514 5515 5516 5518 5519 5521 5523 5524 5526 5527 5528 5530 5531 5532 5533 5534 5534 5535 5535 5536 5536 5536 5536 5536 5535 5534 5533 5532 5530 5529 5527 5524 5522 5519 5517 5514 5512 5509 5505 5503 5500 5499 5498 5497 5496 5494 5493 5492 5490 5489 5487 5485 5484 5482 5481 5479 5477 5475
5479 5479 5479 5480 5480 5481 5482 5483 5484 5485 5487 5488 5489 5490 5492 5494 5495 5496 5498 5500 5502 5503 5505 5507 5508 5510 5511 5512 5514 5515 5517 5519 5520 5522 5523 5525 5526 5527 5528 5529 5530 5531 5532 5532 5533 5533 5534 5534 5534 5534 5534 5533 5532 5531 5530 5529 5528 5526 5524 5522 5519 5517 5515 5513 5510 5507 5504 5501 5499 5497 5496 5495 5494 5493 5492 5490 5489 5487 5486 5484 5483 5481 5480 5478 5476
5483 5483 5483 5483 5483 5484 5485 5486 5486 5487 5488 5489 5490 5491 5493 5494 5495 5496 5498 5499 5501 5502 5504 5505 5507 5508 5510 5511 5513 5514 5516 5518 5519 5521 5523 5524 5525 5526 5527 5528 5528 5529 5530 5530 5531 5531 5532 5532 5532 5532 5531 5531 5530 5530 5529 5528 5526 5525 5523 5521 5519 5518 5516 5513 5511 5508 5505 5502 5499 5497 5496 5495 5494 5492 5491 5490 5489 5487 5486 5485 5483 5482 5481 5479 5478
5485 5485 5485 5486 5486 5486 5487 5487 5488 5489 5489 5490 5491 5492 5493 5494 5495 5496 5497 5499 5500 5501 5503 5504 5505 5507 5509 5510 5512 5514 5516 5517 5519 5520 5521 5522 5523 5524 5525 5525 5526 5527 5527 5528 5528 5529 5529 5530 5530 5530 5529 5529 5528 5528 5527 5526 5525 5524 5523 5521 5519 5518 5516 5513 5511 5509 5506 5503 5500 5498 5496 5494 5493 5492 5491 5490 5489 5487 5486 5485 5484 5483 5481 5480 5479